Location: Kalberh�ni
(46.4610°N, 7.2453°E)
Time: 06:10:28
(UTC+00:00)

Cosmos 2333 Rocket - Pass Details

Date: 24 October 2021
Orbit: 837 x 865 km, 70.8° (Epoch: 05 December)

Event Time Altitude Azimuth Distance (km) Brightness Sun altitude
Rises 18:20:17 0° 182° (S) 3,382 5.3 -19.9°
Reaches altitude 10° 18:22:49 10° 175° (S) 2,455 4.5 -20.3°
Enters shadow 18:27:31 39° 121° (ESE) 1,245 2.6 -21.1°
